Main page
METAR-TAF:

METAR-TAF

Airports :

Región de Murcia International Airport

Murcia, Corvera, Spain

latitude: 37-48-13N, longitude: 1-07-27W, elevation: 193 m

Current weather observation

The report was made 26 minutes ago, at 12:00 UTC
Wind 4 kt from the Northwest
Temperature 29°C
Humidity 35%
Pressure 1017 hPa
Visibility 10 km or more
Few clouds at a height of 3000 ft

METAR: LEMI 211200Z 32004KT 9999 FEW030 29/12 Q1017

Time: 14:26 (12:26 UTC)


TAF: missing

Weather observations and forecasts of more than 4000 airports (METAR and TAF reports).

The available stations are represented by yellow and red dots on the map.

Hover mouse over dot to see the name of the station.

Then click to see weather observations and forecasts.

To change the map : click on the green buttons with a black cross to zoom in, on the green button with a dash to zoom out, or on the green arrows for adjacent maps.


METAR-TAF: